User: anonymous   Login
Location: Thompson
(55.7500°N, 97.8670°W)
Time: 22:02:50
(UTC-06:00)
Language:

Cosmos 1833 Rocket - Orbit

View from above orbital plane
View from above orbital plane
View from above satellite
View from above satellite

Ground track
Ground track

The orbit data is extracted from the following two-line orbital elements,

1 17590U 87027B   17327.62867323 +.00000061 +00000-0 +54214-4 0  9990
2 17590 071.0012 174.2311 0003299 040.6832 319.4537 14.16749175586477
Epoch (UTC): 23 November 2017 15:05:17
Eccentricity: 0.0003299
inclination: 71.0012°
perigee height: 834 km
apogee height: 839 km
right ascension of ascending node: 174.2311°
argument of perigee: 40.6832°
revolutions per day: 14.16749175
mean anomaly at epoch: 319.4537°
orbit number at epoch: 58647

The dashed part of the orbit path shows where the satellite is in the earth's shadow,  

DLR